User: anonymous   Login
Location: Newark
(46.7000°N, 60.6000°W)
Time: 14:22:18
(UTC+00:00)
Language:

A-11 Canister half - Orbit

View from above orbital plane
View from above orbital plane
View from above satellite
View from above satellite

Ground track
Ground track

The orbit data is extracted from the following two-line orbital elements,

1 00053U 60009E   21131.56662716 -.00000097  00000-0 -12414-3 0  9993
2 00053  47.2777 327.1360 0097985 331.5397  28.0064 12.17254825708535
Epoch (UTC): 11 May 2021 13:35:56
Eccentricity: 0.0097985
inclination: 47.2777°
perigee height: 1526 km
apogee height: 1683 km
right ascension of ascending node: 327.1360°
argument of perigee: 331.5397°
revolutions per day: 12.17254825
mean anomaly at epoch: 28.0064°
orbit number at epoch: 70853

The dashed part of the orbit path shows where the satellite is in the earth's shadow,  

DLR